Flag for Switzerland Weather past 2 weeks in Schaffhausen, Schaffhausen, Switzerland

Now
63 °F

Rain. Low clouds.


Feels Like: 63 °F
Forecast: 60 / 80 °F
Wind: 8 mph from Southwest

Location: Zurich-Kloten

Current Time: Jul 22, 2014 at 9:28:25 AM

Latest Report: Jul 22, 2014 at 8:00 AM


Visibility: 3 mi

Pressure: 29.88 "Hg

Humidity: 95%

Dew point: 61 °F

Location of SchaffhausenLocation

Historic Weather in Schaffhausen — Graph

°F

Schaffhausen temperature yesterday

Maximum temperature yesterday: 68 °F (at 2:00 PM)
Minimum temperature yesterday: 59 °F (at 3:00 AM)
Average temperature yesterday: 63 °F

Past Weeks' High & Low Weather Summary

 TemperatureHumidityPressure
High90 °F (Jul 19, 6:00 PM)99% (Jul 12, 2:00 AM)30.21 "Hg (Jul 12, 2:00 AM)
Low50 °F (Jul 10, 6:00 AM)24% (Jul 18, 5:00 PM)29.80 "Hg (Jul 19, 7:00 PM)
Average65 °F78%29.97 "Hg
* Reported Jul 7 8:00 AM — Jul 22 8:00 AM, Schaffhausen, Weather by CustomWeather, © 2014

Note: Actual official high and low records may vary slightly from our data, if they occured in-between our weather recording intervals... More about our weather records

Advertising

Schaffhausen weather history for previous 24 hours

 ConditionsComfort  
Time TempWeatherWind HumidityBarometerVisibility
8:00 AM
Jul 22
63 °FRain. Low clouds.8 mph95%29.88 "Hg3 mi
7:00 AM63 °FMild.10 mph94%29.89 "HgN/A
6:00 AM62 °FCool.3 mph95%29.90 "HgN/A
5:00 AM62 °FRain. Low clouds.3 mph97%29.90 "Hg4 mi
4:00 AM61 °FCool.3 mph97%29.90 "HgN/A
3:00 AM62 °FCool.5 mph96%29.90 "HgN/A
2:00 AM62 °FLight rain. Low clouds.3 mph94%29.92 "Hg9 mi
1:00 AM62 °FCool.3 mph95%29.93 "HgN/A
12:00 AM62 °FCool.5 mph96%29.93 "HgN/A
11:00 PM
Jul 21
62 °FLight rain. Low clouds.6 mph95%29.94 "Hg5 mi
10:00 PM62 °FCool.6 mph96%29.94 "HgN/A
9:00 PM62 °FCool.3 mph95%29.93 "HgN/A
8:00 PM63 °FLight rain. Low clouds.8 mph93%29.93 "Hg4 mi
7:00 PM64 °FMild.5 mph91%29.93 "HgN/A
6:00 PM67 °FMild.7 mph74%29.91 "HgN/A
5:00 PM68 °FOvercast.9 mph73%29.90 "Hg19 mi
4:00 PM68 °FMild.7 mph72%29.90 "HgN/A
3:00 PM67 °FMild.8 mph73%29.91 "HgN/A
2:00 PM68 °FOvercast.6 mph70%29.91 "Hg19 mi
1:00 PM67 °FMild.6 mph70%29.92 "HgN/A
12:00 PM66 °FMild.8 mph73%29.93 "HgN/A
11:00 AM64 °FOvercast.7 mph78%29.93 "Hg19 mi
10:00 AM63 °FMild.8 mph81%29.93 "HgN/A
9:00 AM63 °FMild.7 mph81%29.93 "HgN/A
Weather by CustomWeather, © 2014

See weather overviewHow to use our weather pages